Location: Les Coudrans
(46.1056°N, 1.1158°W)
Time: 19:28:06
(UTC+00:00)

Cosmos 1777 Rocket - Pass Details

Date: 03 March 2021
Orbit: 759 x 775 km, 74.0° (Epoch: 21 April)

Event Time Altitude Azimuth Distance (km) Brightness Sun altitude
Rises 20:09:14 0° 336° (NNW) 3,247 7.8 -24.0°
Reaches altitude 10° 20:11:38 10° 334° (NNW) 2,314 7.0 -24.4°
Maximum altitude 20:16:51 68° 252° (WSW) 824 4.2 -25.3°
Enters shadow 20:18:23 44° 187° (S) 1,044 4.5 -25.6°
